Погода:Россия/Московская область/Москва/Источники/OpenWeatherMap/1

Материал из Онлайн справочника
Перейти к навигации Перейти к поиску

Перевод: Максим Кузьмин (Cubewriter) Контакты:</br>* Skype: cubewriter</br>* E-mail: cubewriter@gmail.com</br>* Максим Кузьмин на freelance.ru
Проверка/Оформление/Редактирование: Мякишев Е.А.


Данные[1]

 Дата и время в UTC-форматеТемператураЭто свойство относится к числу специальных свойств данного вики-сайта.Максимальная температура на данный моментМинимальная температура на данный моментСкорость ветраПасмурностьВлажностьАтмосферное давление относительно уровня моряМетеорологическое направление ветраОписание погодного условия
Россия/Московская область/Москва/Источники/OpenWeatherMap/1/2839968001979-01-01 00:00:00 +0000 UTC-34,2 °C238,95 K <br />-29,56 °F <br />430,11 °R <br />-33 °C240,15 K <br />-27,4 °F <br />432,27 °R <br />-36,36 °C236,79 K <br />-33,448 °F <br />426,222 °R <br />1,79 м/с20 %74 %1020 гПа125 градус(градусов)Дымка
Россия/Московская область/Москва/Источники/OpenWeatherMap/1/2840004001979-01-01 01:00:00 +0000 UTC-34,32 °C238,83 K <br />-29,776 °F <br />429,894 °R <br />-33 °C240,15 K <br />-27,4 °F <br />432,27 °R <br />-36 °C237,15 K <br />-32,8 °F <br />426,87 °R <br />2,17 м/с20 %74 %1020 гПа125 градус(градусов)Дымка
Россия/Московская область/Москва/Источники/OpenWeatherMap/1/2840040001979-01-01 02:00:00 +0000 UTC-34,83 °C238,32 K <br />-30,694 °F <br />428,976 °R <br />-33,63 °C239,52 K <br />-28,534 °F <br />431,136 °R <br />-36 °C237,15 K <br />-32,8 °F <br />426,87 °R <br />2,57 м/с100 %66 %1018 гПа132 градус(градусов)Дымка
Россия/Московская область/Москва/Источники/OpenWeatherMap/1/2840076001979-01-01 03:00:00 +0000 UTC-33,61 °C239,54 K <br />-28,498 °F <br />431,172 °R <br />-30,86 °C242,29 K <br />-23,548 °F <br />436,122 °R <br />-35 °C238,15 K <br />-31 °F <br />428,67 °R <br />2,58 м/с100 %73 %1017 гПа119 градус(градусов)Дымка
Россия/Московская область/Москва/Источники/OpenWeatherMap/1/2840112001979-01-01 04:00:00 +0000 UTC-32,83 °C240,32 K <br />-27,094 °F <br />432,576 °R <br />-30,53 °C242,62 K <br />-22,954 °F <br />436,716 °R <br />-35 °C238,15 K <br />-31 °F <br />428,67 °R <br />2 м/с100 %67 %1017 гПа150 градус(градусов)Дымка
Россия/Московская область/Москва/Источники/OpenWeatherMap/1/2840148001979-01-01 05:00:00 +0000 UTC-31 °C242,15 K <br />-23,8 °F <br />435,87 °R <br />-28 °C245,15 K <br />-18,4 °F <br />441,27 °R <br />-35 °C238,15 K <br />-31 °F <br />428,67 °R <br />3 м/с40 %68 %1017 гПа90 градус(градусов)Дымка
Россия/Московская область/Москва/Источники/OpenWeatherMap/1/2840184001979-01-01 06:00:00 +0000 UTC-30,49 °C242,66 K <br />-22,882 °F <br />436,788 °R <br />-28 °C245,15 K <br />-18,4 °F <br />441,27 °R <br />-34 °C239,15 K <br />-29,2 °F <br />430,47 °R <br />3 м/с40 %68 %1017 гПа90 градус(градусов)Дымка
Россия/Московская область/Москва/Источники/OpenWeatherMap/1/2840220001979-01-01 07:00:00 +0000 UTC-30,36 °C242,79 K <br />-22,648 °F <br />437,022 °R <br />-28 °C245,15 K <br />-18,4 °F <br />441,27 °R <br />-34 °C239,15 K <br />-29,2 °F <br />430,47 °R <br />3 м/с40 %68 %1016 гПа90 градус(градусов)Дымка
Россия/Московская область/Москва/Источники/OpenWeatherMap/1/2840256001979-01-01 08:00:00 +0000 UTC-30,87 °C242,28 K <br />-23,566 °F <br />436,104 °R <br />-28 °C245,15 K <br />-18,4 °F <br />441,27 °R <br />-33 °C240,15 K <br />-27,4 °F <br />432,27 °R <br />3 м/с100 %68 %1015 гПа110 градус(градусов)Сплошная облачность: 85-100%
Россия/Московская область/Москва/Источники/OpenWeatherMap/1/2840292001979-01-01 09:00:00 +0000 UTC-29,76 °C243,39 K <br />-21,568 °F <br />438,102 °R <br />-27 °C246,15 K <br />-16,6 °F <br />443,07 °R <br />-32 °C241,15 K <br />-25,6 °F <br />434,07 °R <br />3 м/с79 %75 %1015 гПа110 градус(градусов)Повышенная облачность: 51-84%
Россия/Московская область/Москва/Источники/OpenWeatherMap/1/2840328001979-01-01 10:00:00 +0000 UTC-26,93 °C246,22 K <br />-16,474 °F <br />443,196 °R <br />-25 °C248,15 K <br />-13 °F <br />446,67 °R <br />-29 °C244,15 K <br />-20,2 °F <br />439,47 °R <br />5,1 м/с100 %69 %1013 гПа80 градус(градусов)Сплошная облачность: 85-100%
Россия/Московская область/Москва/Источники/OpenWeatherMap/1/2840364001979-01-01 11:00:00 +0000 UTC-26,16 °C246,99 K <br />-15,088 °F <br />444,582 °R <br />-24 °C249,15 K <br />-11,2 °F <br />448,47 °R <br />-29 °C244,15 K <br />-20,2 °F <br />439,47 °R <br />5 м/с40 %69 %1013 гПа90 градус(градусов)Дымка
Россия/Московская область/Москва/Источники/OpenWeatherMap/1/2840400001979-01-01 12:00:00 +0000 UTC-25,62 °C247,53 K <br />-14,116 °F <br />445,554 °R <br />-24 °C249,15 K <br />-11,2 °F <br />448,47 °R <br />-28 °C245,15 K <br />-18,4 °F <br />441,27 °R <br />5 м/с40 %69 %1013 гПа90 градус(градусов)Дымка
Россия/Московская область/Москва/Источники/OpenWeatherMap/1/2840436001979-01-01 13:00:00 +0000 UTC-25,39 °C247,76 K <br />-13,702 °F <br />445,968 °R <br />-24 °C249,15 K <br />-11,2 °F <br />448,47 °R <br />-27 °C246,15 K <br />-16,6 °F <br />443,07 °R <br />5 м/с40 %69 %1013 гПа90 градус(градусов)Дымка
Россия/Московская область/Москва/Источники/OpenWeatherMap/1/2840472001979-01-01 14:00:00 +0000 UTC-25,73 °C247,42 K <br />-14,314 °F <br />445,356 °R <br />-25 °C248,15 K <br />-13 °F <br />446,67 °R <br />-26,55 °C246,6 K <br />-15,79 °F <br />443,88 °R <br />5,1 м/с100 %69 %1011 гПа90 градус(градусов)Дымка
Россия/Московская область/Москва/Источники/OpenWeatherMap/1/2840508001979-01-01 15:00:00 +0000 UTC-25,14 °C248,01 K <br />-13,252 °F <br />446,418 °R <br />-23,99 °C249,16 K <br />-11,182 °F <br />448,488 °R <br />-26 °C247,15 K <br />-14,8 °F <br />444,87 °R <br />5,1 м/с100 %69 %1011 гПа70 градус(градусов)Легкий снег
Россия/Московская область/Москва/Источники/OpenWeatherMap/1/2840544001979-01-01 16:00:00 +0000 UTC-24,78 °C248,37 K <br />-12,604 °F <br />447,066 °R <br />-23,87 °C249,28 K <br />-10,966 °F <br />448,704 °R <br />-25 °C248,15 K <br />-13 °F <br />446,67 °R <br />6,1 м/с100 %69 %1011 гПа90 градус(градусов)Дымка
Россия/Московская область/Москва/Источники/OpenWeatherMap/1/2840580001979-01-01 17:00:00 +0000 UTC-24,55 °C248,6 K <br />-12,19 °F <br />447,48 °R <br />-24 °C249,15 K <br />-11,2 °F <br />448,47 °R <br />-25 °C248,15 K <br />-13 °F <br />446,67 °R <br />5 м/с90 %76 %1012 гПа90 градус(градусов)Легкий снег
Россия/Московская область/Москва/Источники/OpenWeatherMap/1/2840616001979-01-01 18:00:00 +0000 UTC-24,33 °C248,82 K <br />-11,794 °F <br />447,876 °R <br />-24 °C249,15 K <br />-11,2 °F <br />448,47 °R <br />-25 °C248,15 K <br />-13 °F <br />446,67 °R <br />5 м/с90 %76 %1011 гПа90 градус(градусов)Легкий снег
Россия/Московская область/Москва/Источники/OpenWeatherMap/1/2840652001979-01-01 19:00:00 +0000 UTC-24,36 °C248,79 K <br />-11,848 °F <br />447,822 °R <br />-24 °C249,15 K <br />-11,2 °F <br />448,47 °R <br />-25 °C248,15 K <br />-13 °F <br />446,67 °R <br />5 м/с90 %76 %1011 гПа90 градус(градусов)Легкий снег
Россия/Московская область/Москва/Источники/OpenWeatherMap/1/2840688001979-01-01 20:00:00 +0000 UTC-24,23 °C248,92 K <br />-11,614 °F <br />448,056 °R <br />-24 °C249,15 K <br />-11,2 °F <br />448,47 °R <br />-24,91 °C248,24 K <br />-12,838 °F <br />446,832 °R <br />5,1 м/с100 %69 %1010 гПа70 градус(градусов)Снег
Россия/Московская область/Москва/Источники/OpenWeatherMap/1/2840724001979-01-01 21:00:00 +0000 UTC-24,39 °C248,76 K <br />-11,902 °F <br />447,768 °R <br />-24 °C249,15 K <br />-11,2 °F <br />448,47 °R <br />-25,27 °C247,88 K <br />-13,486 °F <br />446,184 °R <br />5,1 м/с100 %69 %1010 гПа70 градус(градусов)Легкий снег
Россия/Московская область/Москва/Источники/OpenWeatherMap/1/2840760001979-01-01 22:00:00 +0000 UTC-23,54 °C249,61 K <br />-10,372 °F <br />449,298 °R <br />-22,57 °C250,58 K <br />-8,626 °F <br />451,044 °R <br />-24 °C249,15 K <br />-11,2 °F <br />448,47 °R <br />5,1 м/с100 %76 %1010 гПа70 градус(градусов)Легкий снег
Россия/Московская область/Москва/Источники/OpenWeatherMap/1/2840796001979-01-01 23:00:00 +0000 UTC-23,37 °C249,78 K <br />-10,066 °F <br />449,604 °R <br />-22,57 °C250,58 K <br />-8,626 °F <br />451,044 °R <br />-24 °C249,15 K <br />-11,2 °F <br />448,47 °R <br />6 м/с90 %76 %1011 гПа70 градус(градусов)Легкий снег
Россия/Московская область/Москва/Источники/OpenWeatherMap/1/2840832001979-01-02 00:00:00 +0000 UTC-23,34 °C249,81 K <br />-10,012 °F <br />449,658 °R <br />-22,45 °C250,7 K <br />-8,41 °F <br />451,26 °R <br />-24 °C249,15 K <br />-11,2 °F <br />448,47 °R <br />6 м/с90 %76 %1011 гПа70 градус(градусов)Легкий снег
Россия/Московская область/Москва/Источники/OpenWeatherMap/1/2840868001979-01-02 01:00:00 +0000 UTC-23,29 °C249,86 K <br />-9,922 °F <br />449,748 °R <br />-22,3 °C250,85 K <br />-8,14 °F <br />451,53 °R <br />-24 °C249,15 K <br />-11,2 °F <br />448,47 °R <br />6 м/с90 %76 %1011 гПа70 градус(градусов)Легкий снег
Россия/Московская область/Москва/Источники/OpenWeatherMap/1/2840904001979-01-02 02:00:00 +0000 UTC-22,66 °C250,49 K <br />-8,788 °F <br />450,882 °R <br />-22,18 °C250,97 K <br />-7,924 °F <br />451,746 °R <br />-23 °C250,15 K <br />-9,4 °F <br />450,27 °R <br />7,2 м/с90 %76 %1010 гПа80 градус(градусов)Сплошная облачность: 85-100%
Россия/Московская область/Москва/Источники/OpenWeatherMap/1/2840940001979-01-02 03:00:00 +0000 UTC-22,43 °C250,72 K <br />-8,374 °F <br />451,296 °R <br />-21,13 °C252,02 K <br />-6,034 °F <br />453,636 °R <br />-23 °C250,15 K <br />-9,4 °F <br />450,27 °R <br />5,1 м/с40 %76 %1009 гПа80 градус(градусов)Легкий снег
Россия/Московская область/Москва/Источники/OpenWeatherMap/1/2840976001979-01-02 04:00:00 +0000 UTC-22,17 °C250,98 K <br />-7,906 °F <br />451,764 °R <br />-21,21 °C251,94 K <br />-6,178 °F <br />453,492 °R <br />-23 °C250,15 K <br />-9,4 °F <br />450,27 °R <br />5,1 м/с90 %76 %1009 гПа70 градус(градусов)Легкий снег
Россия/Московская область/Москва/Источники/OpenWeatherMap/1/2841012001979-01-02 05:00:00 +0000 UTC-21,48 °C251,67 K <br />-6,664 °F <br />453,006 °R <br />-21 °C252,15 K <br />-5,8 °F <br />453,87 °R <br />-22 °C251,15 K <br />-7,6 °F <br />452,07 °R <br />5 м/с90 %69 %1011 гПа100 градус(градусов)Сплошная облачность: 85-100%
Россия/Московская область/Москва/Источники/OpenWeatherMap/1/2841048001979-01-02 06:00:00 +0000 UTC-21,8 °C251,35 K <br />-7,24 °F <br />452,43 °R <br />-21 °C252,15 K <br />-5,8 °F <br />453,87 °R <br />-23 °C250,15 K <br />-9,4 °F <br />450,27 °R <br />5 м/с90 %69 %1010 гПа100 градус(градусов)Сплошная облачность: 85-100%
Россия/Московская область/Москва/Источники/OpenWeatherMap/1/2841084001979-01-02 07:00:00 +0000 UTC-21,48 °C251,67 K <br />-6,664 °F <br />453,006 °R <br />-21 °C252,15 K <br />-5,8 °F <br />453,87 °R <br />-22 °C251,15 K <br />-7,6 °F <br />452,07 °R <br />5 м/с90 %69 %1011 гПа100 градус(градусов)Сплошная облачность: 85-100%
Россия/Московская область/Москва/Источники/OpenWeatherMap/1/2841120001979-01-02 08:00:00 +0000 UTC-21,55 °C251,6 K <br />-6,79 °F <br />452,88 °R <br />-21 °C252,15 K <br />-5,8 °F <br />453,87 °R <br />-22 °C251,15 K <br />-7,6 °F <br />452,07 °R <br />5 м/с90 %76 %1010 гПа60 градус(градусов)Дымка
Россия/Московская область/Москва/Источники/OpenWeatherMap/1/2841156001979-01-02 09:00:00 +0000 UTC-21,68 °C251,47 K <br />-7,024 °F <br />452,646 °R <br />-21 °C252,15 K <br />-5,8 °F <br />453,87 °R <br />-23,05 °C250,1 K <br />-9,49 °F <br />450,18 °R <br />5 м/с90 %76 %1009 гПа60 градус(градусов)Дымка
Россия/Московская область/Москва/Источники/OpenWeatherMap/1/2841192001979-01-02 10:00:00 +0000 UTC-20,79 °C252,36 K <br />-5,422 °F <br />454,248 °R <br />-19,97 °C253,18 K <br />-3,946 °F <br />455,724 °R <br />-21 °C252,15 K <br />-5,8 °F <br />453,87 °R <br />5 м/с90 %76 %1008 гПа60 градус(градусов)Дымка
Россия/Московская область/Москва/Источники/OpenWeatherMap/1/2841228001979-01-02 11:00:00 +0000 UTC-20,07 °C253,08 K <br />-4,126 °F <br />455,544 °R <br />-20 °C253,15 K <br />-4 °F <br />455,67 °R <br />-20,33 °C252,82 K <br />-4,594 °F <br />455,076 °R <br />4 м/с90 %70 %1008 гПа90 градус(градусов)Сплошная облачность: 85-100%
Россия/Московская область/Москва/Источники/OpenWeatherMap/1/2841264001979-01-02 12:00:00 +0000 UTC-20,08 °C253,07 K <br />-4,144 °F <br />455,526 °R <br />-20 °C253,15 K <br />-4 °F <br />455,67 °R <br />-20,37 °C252,78 K <br />-4,666 °F <br />455,004 °R <br />4 м/с90 %70 %1008 гПа90 градус(градусов)Сплошная облачность: 85-100%
Россия/Московская область/Москва/Источники/OpenWeatherMap/1/2841300001979-01-02 13:00:00 +0000 UTC-20,13 °C253,02 K <br />-4,234 °F <br />455,436 °R <br />-20 °C253,15 K <br />-4 °F <br />455,67 °R <br />-20,55 °C252,6 K <br />-4,99 °F <br />454,68 °R <br />4 м/с90 %70 %1008 гПа90 градус(градусов)Сплошная облачность: 85-100%
Россия/Московская область/Москва/Источники/OpenWeatherMap/1/2841336001979-01-02 14:00:00 +0000 UTC-20,21 °C252,94 K <br />-4,378 °F <br />455,292 °R <br />-20 °C253,15 K <br />-4 °F <br />455,67 °R <br />-20,61 °C252,54 K <br />-5,098 °F <br />454,572 °R <br />3 м/с100 %70 %1007 гПа30 градус(градусов)Дымка
Россия/Московская область/Москва/Источники/OpenWeatherMap/1/2841372001979-01-02 15:00:00 +0000 UTC-21,12 °C252,03 K <br />-6,016 °F <br />453,654 °R <br />-21 °C252,15 K <br />-5,8 °F <br />453,87 °R <br />-21,36 °C251,79 K <br />-6,448 °F <br />453,222 °R <br />3 м/с100 %76 %1007 гПа20 градус(градусов)Дымка
Россия/Московская область/Москва/Источники/OpenWeatherMap/1/2841408001979-01-02 16:00:00 +0000 UTC-21,51 °C251,64 K <br />-6,718 °F <br />452,952 °R <br />-21 °C252,15 K <br />-5,8 °F <br />453,87 °R <br />-22 °C251,15 K <br />-7,6 °F <br />452,07 °R <br />3 м/с100 %76 %1007 гПа20 градус(градусов)Дымка
Россия/Московская область/Москва/Источники/OpenWeatherMap/1/2841444001979-01-02 17:00:00 +0000 UTC-21,94 °C251,21 K <br />-7,492 °F <br />452,178 °R <br />-21,67 °C251,48 K <br />-7,006 °F <br />452,664 °R <br />-22 °C251,15 K <br />-7,6 °F <br />452,07 °R <br />4 м/с40 %76 %1008 гПа60 градус(градусов)Дымка
Россия/Московская область/Москва/Источники/OpenWeatherMap/1/2841480001979-01-02 18:00:00 +0000 UTC-22,1 °C251,05 K <br />-7,78 °F <br />451,89 °R <br />-22 °C251,15 K <br />-7,6 °F <br />452,07 °R <br />-22,4 °C250,75 K <br />-8,32 °F <br />451,35 °R <br />4 м/с40 %76 %1008 гПа60 градус(градусов)Дымка
Россия/Московская область/Москва/Источники/OpenWeatherMap/1/2841516001979-01-02 19:00:00 +0000 UTC-22,32 °C250,83 K <br />-8,176 °F <br />451,494 °R <br />-22 °C251,15 K <br />-7,6 °F <br />452,07 °R <br />-23 °C250,15 K <br />-9,4 °F <br />450,27 °R <br />4 м/с40 %76 %1007 гПа60 градус(градусов)Дымка
Россия/Московская область/Москва/Источники/OpenWeatherMap/1/2841552001979-01-02 20:00:00 +0000 UTC-22,14 °C251,01 K <br />-7,852 °F <br />451,818 °R <br />-22 °C251,15 K <br />-7,6 °F <br />452,07 °R <br />-22,67 °C250,48 K <br />-8,806 °F <br />450,864 °R <br />4 м/с40 %69 %1008 гПа30 градус(градусов)Незначительная облачность: 25-50%
Россия/Московская область/Москва/Источники/OpenWeatherMap/1/2841588001979-01-02 21:00:00 +0000 UTC-22,88 °C250,27 K <br />-9,184 °F <br />450,486 °R <br />-22 °C251,15 K <br />-7,6 °F <br />452,07 °R <br />-25,68 °C247,47 K <br />-14,224 °F <br />445,446 °R <br />4 м/с40 %69 %1008 гПа30 градус(градусов)Незначительная облачность: 25-50%
Россия/Московская область/Москва/Источники/OpenWeatherMap/1/2841624001979-01-02 22:00:00 +0000 UTC-22,15 °C251 K <br />-7,87 °F <br />451,8 °R <br />-22 °C251,15 K <br />-7,6 °F <br />452,07 °R <br />-22,6 °C250,55 K <br />-8,68 °F <br />450,99 °R <br />4 м/с40 %69 %1008 гПа30 градус(градусов)Незначительная облачность: 25-50%
Россия/Московская область/Москва/Источники/OpenWeatherMap/1/2841660001979-01-02 23:00:00 +0000 UTC-20,85 °C252,3 K <br />-5,53 °F <br />454,14 °R <br />-20 °C253,15 K <br />-4 °F <br />455,67 °R <br />-22,66 °C250,49 K <br />-8,788 °F <br />450,882 °R <br />4 м/с90 %76 %1008 гПа30 градус(градусов)Дымка
Россия/Московская область/Москва/Источники/OpenWeatherMap/1/2841696001979-01-03 00:00:00 +0000 UTC-20,59 °C252,56 K <br />-5,062 °F <br />454,608 °R <br />-20 °C253,15 K <br />-4 °F <br />455,67 °R <br />-22,55 °C250,6 K <br />-8,59 °F <br />451,08 °R <br />4 м/с90 %76 %1008 гПа30 градус(градусов)Дымка
Россия/Московская область/Москва/Источники/OpenWeatherMap/1/2841732001979-01-03 01:00:00 +0000 UTC-20,48 °C252,67 K <br />-4,864 °F <br />454,806 °R <br />-20 °C253,15 K <br />-4 °F <br />455,67 °R <br />-22,09 °C251,06 K <br />-7,762 °F <br />451,908 °R <br />4 м/с90 %76 %1008 гПа30 градус(градусов)Дымка
… следующие результаты

См.также

Внешние ссылки